Year,Month,Day,Hour,Minute,Value (Times are PST for temperature in C)
2016,12,14,00,00,-4.50
2016,12,14,00,01,-4.60
2016,12,14,00,02,-4.60
2016,12,14,00,03,-4.60
2016,12,14,00,04,-4.60
2016,12,14,00,05,-4.60
2016,12,14,00,06,-4.70
2016,12,14,00,07,-4.70
2016,12,14,00,08,-4.70
2016,12,14,00,09,-4.70
2016,12,14,00,10,-4.70
2016,12,14,00,11,-4.70
2016,12,14,00,12,-4.70
2016,12,14,00,13,-4.70
2016,12,14,00,14,-4.70
2016,12,14,00,15,-4.70
2016,12,14,00,16,-4.70
2016,12,14,00,17,-4.70
2016,12,14,00,18,-4.70
2016,12,14,00,19,-4.70
2016,12,14,00,20,-4.70
2016,12,14,00,21,-4.70
2016,12,14,00,22,-4.70
2016,12,14,00,23,-4.70
2016,12,14,00,24,-4.80
2016,12,14,00,25,-4.80
2016,12,14,00,26,-4.80
2016,12,14,00,27,-4.80
2016,12,14,00,28,-4.80
2016,12,14,00,29,-4.80
2016,12,14,00,30,-4.80
2016,12,14,00,31,-4.80
2016,12,14,00,32,-4.80
2016,12,14,00,33,-4.80
2016,12,14,00,34,-4.80
2016,12,14,00,35,-4.90
2016,12,14,00,36,-4.90
2016,12,14,00,37,-4.90
2016,12,14,00,38,-4.90
2016,12,14,00,39,-4.90
2016,12,14,00,40,-4.90
2016,12,14,00,41,-4.90
2016,12,14,00,42,-4.90
2016,12,14,00,43,-4.90
2016,12,14,00,44,-4.90
2016,12,14,00,45,-4.90
2016,12,14,00,46,-4.90
2016,12,14,00,47,-4.90
2016,12,14,00,48,-4.90
2016,12,14,00,49,-5.00
2016,12,14,00,50,-5.00
2016,12,14,00,51,-5.00
2016,12,14,00,52,-5.00
2016,12,14,00,53,-5.10
2016,12,14,00,54,-5.10
2016,12,14,00,55,-5.10
2016,12,14,00,56,-5.10
2016,12,14,00,57,-5.10
2016,12,14,00,58,-5.10
2016,12,14,00,59,-5.10
2016,12,14,01,00,-5.10
2016,12,14,01,01,-5.10
2016,12,14,01,02,-5.10
2016,12,14,01,03,-5.10
2016,12,14,01,04,-5.10
2016,12,14,01,05,-5.10
2016,12,14,01,06,-5.10
2016,12,14,01,07,-5.10
2016,12,14,01,08,-5.10
2016,12,14,01,09,-5.10
2016,12,14,01,10,-5.10
2016,12,14,01,11,-5.10
2016,12,14,01,12,-5.10
2016,12,14,01,13,-5.10
2016,12,14,01,14,-5.10
2016,12,14,01,15,-5.20
2016,12,14,01,16,-5.20
2016,12,14,01,17,-5.20
2016,12,14,01,18,-5.20
2016,12,14,01,19,-5.30
2016,12,14,01,20,-5.30
2016,12,14,01,21,-5.30
2016,12,14,01,22,-5.30
2016,12,14,01,23,-5.30
2016,12,14,01,24,-5.30
2016,12,14,01,25,-5.30
2016,12,14,01,26,-5.30
2016,12,14,01,27,-5.30
2016,12,14,01,28,-5.40
2016,12,14,01,29,-5.40
2016,12,14,01,30,-5.40
2016,12,14,01,31,-5.40
2016,12,14,01,32,-5.40
2016,12,14,01,33,-5.40
2016,12,14,01,34,-5.40
2016,12,14,01,35,-5.40
2016,12,14,01,36,-5.40
2016,12,14,01,37,-5.40
2016,12,14,01,38,-5.40
2016,12,14,01,39,-5.40
2016,12,14,01,40,-5.40
2016,12,14,01,41,-5.40
2016,12,14,01,42,-5.50
2016,12,14,01,43,-5.50
2016,12,14,01,44,-5.50
2016,12,14,01,45,-5.50
2016,12,14,01,46,-5.50
2016,12,14,01,47,-5.50
2016,12,14,01,48,-5.50
2016,12,14,01,49,-5.50
2016,12,14,01,50,-5.50
2016,12,14,01,51,-5.50
2016,12,14,01,52,-5.40
2016,12,14,01,53,-5.40
2016,12,14,01,54,-5.40
2016,12,14,01,55,-5.40
2016,12,14,01,56,-5.40
2016,12,14,01,57,-5.40
2016,12,14,01,58,-5.40
2016,12,14,01,59,-5.40
2016,12,14,02,00,-5.40
2016,12,14,02,01,-5.40
2016,12,14,02,02,-5.40
2016,12,14,02,03,-5.40
2016,12,14,02,04,-5.50
2016,12,14,02,05,-5.50
2016,12,14,02,06,-5.50
2016,12,14,02,07,-5.50
2016,12,14,02,08,-5.60
2016,12,14,02,09,-5.60
2016,12,14,02,10,-5.60
2016,12,14,02,11,-5.60
2016,12,14,02,12,-5.50
2016,12,14,02,13,-5.50
2016,12,14,02,14,-5.40
2016,12,14,02,15,-5.40
2016,12,14,02,16,-5.40
2016,12,14,02,17,-5.30
2016,12,14,02,18,-5.30
2016,12,14,02,19,-5.30
2016,12,14,02,20,-5.30
2016,12,14,02,21,-5.30
2016,12,14,02,22,-5.30
2016,12,14,02,23,-5.20
2016,12,14,02,24,-5.20
2016,12,14,02,25,-5.20
2016,12,14,02,26,-5.20
2016,12,14,02,27,-5.20
2016,12,14,02,28,-5.20
2016,12,14,02,29,-5.20
2016,12,14,02,30,-5.20
2016,12,14,02,31,-5.20
2016,12,14,02,32,-5.20
2016,12,14,02,33,-5.20
2016,12,14,02,34,-5.20
2016,12,14,02,35,-5.20
2016,12,14,02,36,-5.20
2016,12,14,02,37,-5.20
2016,12,14,02,38,-5.10
2016,12,14,02,39,-5.10
2016,12,14,02,40,-5.00
2016,12,14,02,41,-5.00
2016,12,14,02,42,-4.90
2016,12,14,02,43,-4.90
2016,12,14,02,44,-4.90
2016,12,14,02,45,-4.90
2016,12,14,02,46,-4.90
2016,12,14,02,47,-4.90
2016,12,14,02,48,-4.90
2016,12,14,02,49,-4.90
2016,12,14,02,50,-4.90
2016,12,14,02,51,-4.90
2016,12,14,02,52,-4.90
2016,12,14,02,53,-5.00
2016,12,14,02,54,-5.00
2016,12,14,02,55,-5.00
2016,12,14,02,56,-5.00
2016,12,14,02,57,-5.00
2016,12,14,02,58,-5.00
2016,12,14,02,59,-5.00
2016,12,14,03,00,-5.00
2016,12,14,03,01,-5.00
2016,12,14,03,02,-5.00
2016,12,14,03,03,-5.00
2016,12,14,03,04,-5.00
2016,12,14,03,05,-4.90
2016,12,14,03,06,-4.90
2016,12,14,03,07,-5.00
2016,12,14,03,08,-5.00
2016,12,14,03,09,-5.00
2016,12,14,03,10,-5.00
2016,12,14,03,11,-5.00
2016,12,14,03,12,-5.00
2016,12,14,03,13,-5.00
2016,12,14,03,14,-5.00
2016,12,14,03,15,-5.00
2016,12,14,03,16,-5.00
2016,12,14,03,17,-5.00
2016,12,14,03,18,-5.00
2016,12,14,03,19,-5.00
2016,12,14,03,20,-5.00
2016,12,14,03,21,-5.00
2016,12,14,03,22,-4.90
2016,12,14,03,23,-4.90
2016,12,14,03,24,-4.90
2016,12,14,03,25,-4.90
2016,12,14,03,26,-4.90
2016,12,14,03,27,-4.90
2016,12,14,03,28,-4.90
2016,12,14,03,29,-4.90
2016,12,14,03,30,-5.00
2016,12,14,03,31,-5.00
2016,12,14,03,32,-5.00
2016,12,14,03,33,-5.00
2016,12,14,03,34,-5.00
2016,12,14,03,35,-5.00
2016,12,14,03,36,-5.00
2016,12,14,03,37,-5.00
2016,12,14,03,38,-4.90
2016,12,14,03,39,-4.90
2016,12,14,03,40,-4.90
2016,12,14,03,41,-4.90
2016,12,14,03,42,-4.90
2016,12,14,03,43,-4.90
2016,12,14,03,44,-4.80
2016,12,14,03,45,-4.80
2016,12,14,03,46,-4.80
2016,12,14,03,47,-4.80
2016,12,14,03,48,-4.80
2016,12,14,03,49,-4.80
2016,12,14,03,50,-4.80
2016,12,14,03,51,-4.80
2016,12,14,03,52,-4.80
2016,12,14,03,53,-4.80
2016,12,14,03,54,-4.90
2016,12,14,03,55,-4.90
2016,12,14,03,56,-4.90
2016,12,14,03,57,-4.90
2016,12,14,03,58,-5.00
2016,12,14,03,59,-5.00
2016,12,14,04,00,-5.00
2016,12,14,04,01,-5.00
2016,12,14,04,02,-5.00
2016,12,14,04,03,-5.00
2016,12,14,04,04,-5.00
2016,12,14,04,05,-5.00
2016,12,14,04,06,-4.90
2016,12,14,04,07,-4.90
2016,12,14,04,08,-4.90
2016,12,14,04,09,-4.90
2016,12,14,04,10,-4.90
2016,12,14,04,11,-4.90
2016,12,14,04,12,-4.90
2016,12,14,04,13,-4.90
2016,12,14,04,14,-4.90
2016,12,14,04,15,-4.90
2016,12,14,04,16,-4.90
2016,12,14,04,17,-4.90
2016,12,14,04,18,-4.80
2016,12,14,04,19,-4.80
2016,12,14,04,20,-4.80
2016,12,14,04,21,-4.80
2016,12,14,04,22,-4.80
2016,12,14,04,23,-4.80
2016,12,14,04,24,-4.80
2016,12,14,04,25,-4.80
2016,12,14,04,26,-4.80
2016,12,14,04,27,-4.80
2016,12,14,04,28,-4.80
2016,12,14,04,29,-4.80
2016,12,14,04,30,-4.80
2016,12,14,04,31,-4.80
2016,12,14,04,32,-4.80
2016,12,14,04,33,-4.80
2016,12,14,04,34,-4.80
2016,12,14,04,35,-4.80
2016,12,14,04,36,-4.80
2016,12,14,04,37,-4.80
2016,12,14,04,38,-4.80
2016,12,14,04,39,-4.80
2016,12,14,04,40,-4.80
2016,12,14,04,41,-4.80
2016,12,14,04,42,-4.80
2016,12,14,04,43,-4.80
2016,12,14,04,44,-4.90
2016,12,14,04,45,-4.90
2016,12,14,04,46,-4.90
2016,12,14,04,47,-4.90
2016,12,14,04,48,-4.90
2016,12,14,04,49,-4.90
2016,12,14,04,50,-4.90
2016,12,14,04,51,-4.90
2016,12,14,04,52,-4.90
2016,12,14,04,53,-4.90
2016,12,14,04,54,-4.90
2016,12,14,04,55,-5.00
2016,12,14,04,56,-5.00
2016,12,14,04,57,-5.00
2016,12,14,04,58,-5.00
2016,12,14,04,59,-5.10
2016,12,14,05,00,-5.10
2016,12,14,05,01,-5.10
2016,12,14,05,02,-5.10
2016,12,14,05,03,-5.10
2016,12,14,05,04,-5.10
2016,12,14,05,05,-5.10
2016,12,14,05,06,-5.10
2016,12,14,05,07,-5.10
2016,12,14,05,08,-5.10
2016,12,14,05,09,-5.10
2016,12,14,05,10,-5.10
2016,12,14,05,11,-5.10
2016,12,14,05,12,-5.10
2016,12,14,05,13,-5.00
2016,12,14,05,14,-5.00
2016,12,14,05,15,-5.00
2016,12,14,05,16,-4.90
2016,12,14,05,17,-4.90
2016,12,14,05,18,-4.90
2016,12,14,05,19,-4.90
2016,12,14,05,20,-4.90
2016,12,14,05,21,-4.80
2016,12,14,05,22,-4.80
2016,12,14,05,23,-4.80
2016,12,14,05,24,-4.80
2016,12,14,05,25,-4.80
2016,12,14,05,26,-4.80
2016,12,14,05,27,-4.80
2016,12,14,05,28,-4.80
2016,12,14,05,29,-4.80
2016,12,14,05,30,-4.80
2016,12,14,05,31,-4.80
2016,12,14,05,32,-4.80
2016,12,14,05,33,-4.80
2016,12,14,05,34,-4.70
2016,12,14,05,35,-4.70
2016,12,14,05,36,-4.70
2016,12,14,05,37,-4.70
2016,12,14,05,38,-4.70
2016,12,14,05,39,-4.70
2016,12,14,05,40,-4.70
2016,12,14,05,41,-4.60
2016,12,14,05,42,-4.60
2016,12,14,05,43,-4.60
2016,12,14,05,44,-4.60
2016,12,14,05,45,-4.60
2016,12,14,05,46,-4.60
2016,12,14,05,47,-4.50
2016,12,14,05,48,-4.50
2016,12,14,05,49,-4.50
2016,12,14,05,50,-4.40
2016,12,14,05,51,-4.40
2016,12,14,05,52,-4.40
2016,12,14,05,53,-4.40
2016,12,14,05,54,-4.30
2016,12,14,05,55,-4.30
2016,12,14,05,56,-4.30
2016,12,14,05,57,-4.30
2016,12,14,05,58,-4.30
2016,12,14,05,59,-4.20
2016,12,14,06,00,-4.20
2016,12,14,06,01,-4.20
2016,12,14,06,02,-4.20
2016,12,14,06,03,-4.20
2016,12,14,06,04,-4.10
2016,12,14,06,05,-4.10
2016,12,14,06,06,-4.10
2016,12,14,06,07,-4.10
2016,12,14,06,08,-4.10
2016,12,14,06,09,-4.10
2016,12,14,06,10,-4.20
2016,12,14,06,11,-4.10
2016,12,14,06,12,-4.20
2016,12,14,06,13,-4.20
2016,12,14,06,14,-4.20
2016,12,14,06,15,-4.20
2016,12,14,06,16,-4.20
2016,12,14,06,17,-4.20
2016,12,14,06,18,-4.20
2016,12,14,06,19,-4.20
2016,12,14,06,20,-4.20
2016,12,14,06,21,-4.20
2016,12,14,06,22,-4.20
2016,12,14,06,23,-4.10
2016,12,14,06,24,-4.10
2016,12,14,06,25,-4.10
2016,12,14,06,26,-4.10
2016,12,14,06,27,-4.10
2016,12,14,06,28,-4.10
2016,12,14,06,29,-4.10
2016,12,14,06,30,-4.10
2016,12,14,06,31,-4.00
2016,12,14,06,32,-4.00
2016,12,14,06,33,-4.00
2016,12,14,06,34,-4.00
2016,12,14,06,35,-4.00
2016,12,14,06,36,-4.00
2016,12,14,06,37,-4.00
2016,12,14,06,38,-4.00
2016,12,14,06,39,-4.00
2016,12,14,06,40,-4.00
2016,12,14,06,41,-4.00
2016,12,14,06,42,-4.00
2016,12,14,06,43,-4.00
2016,12,14,06,44,-3.90
2016,12,14,06,45,-3.90
2016,12,14,06,46,-3.90
2016,12,14,06,47,-3.90
2016,12,14,06,48,-3.90
2016,12,14,06,49,-3.90
2016,12,14,06,50,-3.90
2016,12,14,06,51,-3.90
2016,12,14,06,52,-3.90
2016,12,14,06,53,-3.90
2016,12,14,06,54,-3.80
2016,12,14,06,55,-3.80
2016,12,14,06,56,-3.80
2016,12,14,06,57,-3.80
2016,12,14,06,58,-3.80
2016,12,14,06,59,-3.80
2016,12,14,07,00,-3.80
2016,12,14,07,01,-3.80
2016,12,14,07,02,-3.80
2016,12,14,07,03,-3.80
2016,12,14,07,04,-3.80
2016,12,14,07,05,-3.80
2016,12,14,07,06,-3.80
2016,12,14,07,07,-3.80
2016,12,14,07,08,-3.80
2016,12,14,07,09,-3.80
2016,12,14,07,10,-3.80
2016,12,14,07,11,-3.80
2016,12,14,07,12,-3.80
2016,12,14,07,13,-3.80
2016,12,14,07,14,-3.80
2016,12,14,07,15,-3.80
2016,12,14,07,16,-3.80
2016,12,14,07,17,-3.80
2016,12,14,07,18,-3.80
2016,12,14,07,19,-3.80
2016,12,14,07,20,-3.80
2016,12,14,07,21,-3.80
2016,12,14,07,22,-3.80
2016,12,14,07,23,-3.80
2016,12,14,07,24,-3.80
2016,12,14,07,25,-3.80
2016,12,14,07,26,-3.70
2016,12,14,07,27,-3.70
2016,12,14,07,28,-3.70
2016,12,14,07,29,-3.70
2016,12,14,07,30,-3.70
2016,12,14,07,31,-3.70
2016,12,14,07,32,-3.70
2016,12,14,07,33,-3.70
2016,12,14,07,34,-3.70
2016,12,14,07,35,-3.70
2016,12,14,07,36,-3.70
2016,12,14,07,37,-3.70
2016,12,14,07,38,-3.70
2016,12,14,07,39,-3.70
2016,12,14,07,40,-3.70
2016,12,14,07,41,-3.70
2016,12,14,07,42,-3.80
2016,12,14,07,43,-3.80
2016,12,14,07,44,-3.80
2016,12,14,07,45,-3.80
2016,12,14,07,46,-3.80
2016,12,14,07,47,-3.80
2016,12,14,07,48,-3.80
2016,12,14,07,49,-3.80
2016,12,14,07,50,-3.80
2016,12,14,07,51,-3.80
2016,12,14,07,52,-3.70
2016,12,14,07,53,-3.70
2016,12,14,07,54,-3.70
2016,12,14,07,55,-3.70
2016,12,14,07,56,-3.80
2016,12,14,07,57,-3.80
2016,12,14,07,58,-3.80
2016,12,14,07,59,-3.80
2016,12,14,08,00,-3.80
2016,12,14,08,01,-3.80
2016,12,14,08,02,-3.80
2016,12,14,08,03,-3.80
2016,12,14,08,04,-3.80
2016,12,14,08,05,-3.80
2016,12,14,08,06,-3.80
2016,12,14,08,07,-3.80
2016,12,14,08,08,-3.80
2016,12,14,08,09,-3.80
2016,12,14,08,10,-3.80
2016,12,14,08,11,-3.80
2016,12,14,08,12,-3.90
2016,12,14,08,13,-3.90
2016,12,14,08,14,-3.90
2016,12,14,08,15,-3.90
2016,12,14,08,16,-3.90
2016,12,14,08,17,-3.90
2016,12,14,08,18,-3.90
2016,12,14,08,19,-3.90
2016,12,14,08,20,-3.90
2016,12,14,08,21,-3.90
2016,12,14,08,22,-4.00
2016,12,14,08,23,-4.00
2016,12,14,08,24,-4.00
2016,12,14,08,25,-4.00
2016,12,14,08,26,-4.00
2016,12,14,08,27,-4.00
2016,12,14,08,28,-4.00
2016,12,14,08,29,-4.00
2016,12,14,08,30,-4.10
2016,12,14,08,31,-4.10
2016,12,14,08,32,-4.10
2016,12,14,08,33,-4.10
2016,12,14,08,34,-4.10
2016,12,14,08,35,-4.10
2016,12,14,08,36,-4.10
2016,12,14,08,37,-4.10
2016,12,14,08,38,-4.10
2016,12,14,08,39,-4.10
2016,12,14,08,40,-4.10
2016,12,14,08,41,-4.10
2016,12,14,08,42,-4.00
2016,12,14,08,43,-4.10
2016,12,14,08,44,-4.00
2016,12,14,08,45,-4.00
2016,12,14,08,46,-4.00
2016,12,14,08,47,-4.00
2016,12,14,08,48,-4.00
2016,12,14,08,49,-4.00
2016,12,14,08,50,-4.00
2016,12,14,08,51,-3.90
2016,12,14,08,52,-3.90
2016,12,14,08,53,-3.90
2016,12,14,08,54,-3.90
2016,12,14,08,55,-3.90
2016,12,14,08,56,-3.90
2016,12,14,08,57,-3.90
2016,12,14,08,58,-3.90
2016,12,14,08,59,-3.90
2016,12,14,09,00,-3.90
2016,12,14,09,01,-3.90
2016,12,14,09,02,-3.80
2016,12,14,09,03,-3.90
2016,12,14,09,04,-3.80
2016,12,14,09,05,-3.80
2016,12,14,09,06,-3.80
2016,12,14,09,07,-3.80
2016,12,14,09,08,-3.80
2016,12,14,09,09,-3.80
2016,12,14,09,10,-3.80
2016,12,14,09,11,-3.80
2016,12,14,09,12,-3.80
2016,12,14,09,13,-3.70
2016,12,14,09,14,-3.70
2016,12,14,09,15,-3.70
2016,12,14,09,16,-3.70
2016,12,14,09,17,-3.70
2016,12,14,09,18,-3.70
2016,12,14,09,19,-3.60
2016,12,14,09,20,-3.60
2016,12,14,09,21,-3.60
2016,12,14,09,22,-3.60
2016,12,14,09,23,-3.60
2016,12,14,09,24,-3.60
2016,12,14,09,25,-3.60
2016,12,14,09,26,-3.50
2016,12,14,09,27,-3.50
2016,12,14,09,28,-3.50
2016,12,14,09,29,-3.50
2016,12,14,09,30,-3.40
2016,12,14,09,31,-3.40
2016,12,14,09,32,-3.40
2016,12,14,09,33,-3.40
2016,12,14,09,34,-3.40
2016,12,14,09,35,-3.40
2016,12,14,09,36,-3.40
2016,12,14,09,37,-3.40
2016,12,14,09,38,-3.40
2016,12,14,09,39,-3.40
2016,12,14,09,40,-3.40
2016,12,14,09,41,-3.40
2016,12,14,09,42,-3.40
2016,12,14,09,43,-3.40
2016,12,14,09,44,-3.40
2016,12,14,09,45,-3.40
2016,12,14,09,46,-3.30
2016,12,14,09,47,-3.30
2016,12,14,09,48,-3.30
2016,12,14,09,49,-3.30
2016,12,14,09,50,-3.30
2016,12,14,09,51,-3.30
2016,12,14,09,52,-3.30
2016,12,14,09,53,-3.30
2016,12,14,09,54,-3.20
2016,12,14,09,55,-3.20
2016,12,14,09,56,-3.20
2016,12,14,09,57,-3.20
2016,12,14,09,58,-3.20
2016,12,14,09,59,-3.20
2016,12,14,10,00,-3.20
2016,12,14,10,01,-3.10
2016,12,14,10,02,-3.10
2016,12,14,10,03,-3.10
2016,12,14,10,04,-3.10
2016,12,14,10,05,-3.10
2016,12,14,10,06,-3.10
2016,12,14,10,07,-3.00
2016,12,14,10,08,-3.00
2016,12,14,10,09,-3.00
2016,12,14,10,10,-3.00
2016,12,14,10,11,-3.00
2016,12,14,10,12,-3.00
2016,12,14,10,13,-2.90
2016,12,14,10,14,-2.90
2016,12,14,10,15,-2.90
2016,12,14,10,16,-2.90
2016,12,14,10,17,-2.90
2016,12,14,10,18,-2.90
2016,12,14,10,19,-2.90
2016,12,14,10,20,-2.80
2016,12,14,10,21,-2.80
2016,12,14,10,22,-2.80
2016,12,14,10,23,-2.80
2016,12,14,10,24,-2.80
2016,12,14,10,25,-2.80
2016,12,14,10,26,-2.80
2016,12,14,10,27,-2.80
2016,12,14,10,28,-2.70
2016,12,14,10,29,-2.70
2016,12,14,10,30,-2.70
2016,12,14,10,31,-2.70
2016,12,14,10,32,-2.70
2016,12,14,10,33,-2.70
2016,12,14,10,34,-2.60
2016,12,14,10,35,-2.60
2016,12,14,10,36,-2.60
2016,12,14,10,37,-2.60
2016,12,14,10,38,-2.60
2016,12,14,10,39,-2.60
2016,12,14,10,40,-2.50
2016,12,14,10,41,-2.50
2016,12,14,10,42,-2.50
2016,12,14,10,43,-2.50
2016,12,14,10,44,-2.50
2016,12,14,10,45,-2.40
2016,12,14,10,46,-2.40
2016,12,14,10,47,-2.40
2016,12,14,10,48,-2.40
2016,12,14,10,49,-2.40
2016,12,14,10,50,-2.40
2016,12,14,10,51,-2.40
2016,12,14,10,52,-2.40
2016,12,14,10,53,-2.30
2016,12,14,10,54,-2.30
2016,12,14,10,55,-2.30
2016,12,14,10,56,-2.30
2016,12,14,10,57,-2.20
2016,12,14,10,58,-2.20
2016,12,14,10,59,-2.20
2016,12,14,11,00,-2.10
2016,12,14,11,01,-2.10
2016,12,14,11,02,-2.10
2016,12,14,11,03,-2.00
2016,12,14,11,04,-2.00
2016,12,14,11,05,-2.00
2016,12,14,11,06,-1.90
2016,12,14,11,07,-1.90
2016,12,14,11,08,-1.90
2016,12,14,11,09,-1.90
2016,12,14,11,10,-1.80
2016,12,14,11,11,-1.80
2016,12,14,11,12,-1.80
2016,12,14,11,13,-1.80
2016,12,14,11,14,-1.70
2016,12,14,11,15,-1.70
2016,12,14,11,16,-1.70
2016,12,14,11,17,-1.70
2016,12,14,11,18,-1.70
2016,12,14,11,19,-1.70
2016,12,14,11,20,-1.70
2016,12,14,11,21,-1.70
2016,12,14,11,22,-1.70
2016,12,14,11,23,-1.70
2016,12,14,11,24,-1.60
2016,12,14,11,25,-1.70
2016,12,14,11,26,-1.60
2016,12,14,11,27,-1.70
2016,12,14,11,28,-1.70
2016,12,14,11,29,-1.70
2016,12,14,11,30,-1.70
2016,12,14,11,31,-1.70
2016,12,14,11,32,-1.70
2016,12,14,11,33,-1.70
2016,12,14,11,34,-1.70
2016,12,14,11,35,-1.70
2016,12,14,11,36,-1.70
2016,12,14,11,37,-1.70
2016,12,14,11,38,-1.70
2016,12,14,11,39,-1.70
2016,12,14,11,40,-1.70
2016,12,14,11,41,-1.70
2016,12,14,11,42,-1.70
2016,12,14,11,43,-1.70
2016,12,14,11,44,-1.70
2016,12,14,11,45,-1.70
2016,12,14,11,46,-1.60
2016,12,14,11,47,-1.60
2016,12,14,11,48,-1.60
2016,12,14,11,49,-1.60
2016,12,14,11,50,-1.60
2016,12,14,11,51,-1.50
2016,12,14,11,52,-1.50
2016,12,14,11,53,-1.50
2016,12,14,11,54,-1.50
2016,12,14,11,55,-1.50
2016,12,14,11,56,-1.50
2016,12,14,11,57,-1.40
2016,12,14,11,58,-1.40
2016,12,14,11,59,-1.40
2016,12,14,12,00,-1.40
2016,12,14,12,01,-1.40
2016,12,14,12,02,-1.40
2016,12,14,12,03,-1.40
2016,12,14,12,04,-1.30
2016,12,14,12,05,-1.40
2016,12,14,12,06,-1.40
2016,12,14,12,07,-1.40
2016,12,14,12,08,-1.40
2016,12,14,12,09,-1.40
2016,12,14,12,10,-1.40
2016,12,14,12,11,-1.40
2016,12,14,12,12,-1.40
2016,12,14,12,13,-1.40
2016,12,14,12,14,-1.40
2016,12,14,12,15,-1.40
2016,12,14,12,16,-1.40
2016,12,14,12,17,-1.40
2016,12,14,12,18,-1.40
2016,12,14,12,19,-1.40
2016,12,14,12,20,-1.40
2016,12,14,12,21,-1.40
2016,12,14,12,22,-1.40
2016,12,14,12,23,-1.40
2016,12,14,12,24,-1.40
2016,12,14,12,25,-1.40
2016,12,14,12,26,-1.30
2016,12,14,12,27,-1.30
2016,12,14,12,28,-1.30
2016,12,14,12,29,-1.30
2016,12,14,12,30,-1.30
2016,12,14,12,31,-1.30
2016,12,14,12,32,-1.30
2016,12,14,12,33,-1.30
2016,12,14,12,34,-1.20
2016,12,14,12,35,-1.20
2016,12,14,12,36,-1.20
2016,12,14,12,37,-1.20
2016,12,14,12,38,-1.20
2016,12,14,12,39,-1.20
2016,12,14,12,40,-1.20
2016,12,14,12,41,-1.20
2016,12,14,12,42,-1.20
2016,12,14,12,43,-1.20
2016,12,14,12,44,-1.20
2016,12,14,12,45,-1.20
2016,12,14,12,46,-1.20
2016,12,14,12,47,-1.20
2016,12,14,12,48,-1.20
2016,12,14,12,49,-1.20
2016,12,14,12,50,-1.20
2016,12,14,12,51,-1.20
2016,12,14,12,52,-1.20
2016,12,14,12,53,-1.20
2016,12,14,12,54,-1.20
2016,12,14,12,55,-1.20
2016,12,14,12,56,-1.20
2016,12,14,12,57,-1.20
2016,12,14,12,58,-1.20
2016,12,14,12,59,-1.20
2016,12,14,13,00,-1.20
2016,12,14,13,01,-1.20
2016,12,14,13,02,-1.20
2016,12,14,13,03,-1.20
2016,12,14,13,04,-1.20
2016,12,14,13,05,-1.30
2016,12,14,13,06,-1.30
2016,12,14,13,07,-1.30
2016,12,14,13,08,-1.30
2016,12,14,13,09,-1.30
2016,12,14,13,10,-1.30
2016,12,14,13,11,-1.30
2016,12,14,13,12,-1.30
2016,12,14,13,13,-1.30
2016,12,14,13,14,-1.30
2016,12,14,13,15,-1.20
2016,12,14,13,16,-1.20
2016,12,14,13,17,-1.20
2016,12,14,13,18,-1.20
2016,12,14,13,19,-1.20
2016,12,14,13,20,-1.20
2016,12,14,13,21,-1.20
2016,12,14,13,22,-1.20
2016,12,14,13,23,-1.20
2016,12,14,13,24,-1.20
2016,12,14,13,25,-1.20
2016,12,14,13,26,-1.20
2016,12,14,13,27,-1.20
2016,12,14,13,28,-1.20
2016,12,14,13,29,-1.20
2016,12,14,13,30,-1.20
2016,12,14,13,31,-1.20
2016,12,14,13,32,-1.20
2016,12,14,13,33,-1.20
2016,12,14,13,34,-1.20
2016,12,14,13,35,-1.20
2016,12,14,13,36,-1.10
2016,12,14,13,37,-1.10
2016,12,14,13,38,-1.10
2016,12,14,13,39,-1.10
2016,12,14,13,40,-1.10
2016,12,14,13,41,-1.10
2016,12,14,13,42,-1.10
2016,12,14,13,43,-1.10
2016,12,14,13,44,-1.00
2016,12,14,13,45,-1.00
2016,12,14,13,46,-1.00
2016,12,14,13,47,-1.00
2016,12,14,13,48,-0.90
2016,12,14,13,49,-0.90
2016,12,14,13,50,-0.90
2016,12,14,13,51,-0.90
2016,12,14,13,52,-0.90
2016,12,14,13,53,-0.90
2016,12,14,13,54,-0.90
2016,12,14,13,55,-0.90
2016,12,14,13,56,-0.80
2016,12,14,13,57,-0.90
2016,12,14,13,58,-0.90
2016,12,14,13,59,-0.90
2016,12,14,14,00,-0.90
2016,12,14,14,01,-0.90
2016,12,14,14,02,-0.90
2016,12,14,14,03,-0.90
2016,12,14,14,04,-0.90
2016,12,14,14,05,-0.90
2016,12,14,14,06,-0.90
2016,12,14,14,07,-0.90
2016,12,14,14,08,-0.80
2016,12,14,14,09,-0.80
2016,12,14,14,10,-0.80
2016,12,14,14,11,-0.80
2016,12,14,14,12,-0.80
2016,12,14,14,13,-0.80
2016,12,14,14,14,-0.80
2016,12,14,14,15,-0.80
2016,12,14,14,16,-0.80
2016,12,14,14,17,-0.80
2016,12,14,14,18,-0.80
2016,12,14,14,19,-0.80
2016,12,14,14,20,-0.80
2016,12,14,14,21,-0.80
2016,12,14,14,22,-0.80
2016,12,14,14,23,-0.80
2016,12,14,14,24,-0.80
2016,12,14,14,25,-0.80
2016,12,14,14,26,-0.80
2016,12,14,14,27,-0.80
2016,12,14,14,28,-0.80
2016,12,14,14,29,-0.80
2016,12,14,14,30,-0.80
2016,12,14,14,31,-0.80
2016,12,14,14,32,-0.80
2016,12,14,14,33,-0.80
2016,12,14,14,34,-0.80
2016,12,14,14,35,-0.80
2016,12,14,14,36,-0.80
2016,12,14,14,37,-0.80
2016,12,14,14,38,-0.80
2016,12,14,14,39,-0.80
2016,12,14,14,40,-0.80
2016,12,14,14,41,-0.80
2016,12,14,14,42,-0.80
2016,12,14,14,43,-0.80
2016,12,14,14,44,-0.80
2016,12,14,14,45,-0.80
2016,12,14,14,46,-0.80
2016,12,14,14,47,-0.80
2016,12,14,14,48,-0.80
2016,12,14,14,49,-0.80
2016,12,14,14,50,-0.80
2016,12,14,14,51,-0.80
2016,12,14,14,52,-0.80
2016,12,14,14,53,-0.80
2016,12,14,14,54,-0.80
2016,12,14,14,55,-0.80
2016,12,14,14,56,-0.80
2016,12,14,14,57,-0.80
2016,12,14,14,58,-0.80
2016,12,14,14,59,-0.80
2016,12,14,15,00,-0.80
2016,12,14,15,01,-0.80
2016,12,14,15,02,-0.80
2016,12,14,15,03,-0.80
2016,12,14,15,04,-0.80
2016,12,14,15,05,-0.80
2016,12,14,15,06,-0.80
2016,12,14,15,07,-0.80
2016,12,14,15,08,-0.80
2016,12,14,15,09,-0.80
2016,12,14,15,10,-0.80
2016,12,14,15,11,-0.80
2016,12,14,15,12,-0.80
2016,12,14,15,13,-0.80
2016,12,14,15,14,-0.80
2016,12,14,15,15,-0.80
2016,12,14,15,16,-0.80
2016,12,14,15,17,-0.80
2016,12,14,15,18,-0.80
2016,12,14,15,19,-0.80
2016,12,14,15,20,-0.80
2016,12,14,15,21,-0.80
2016,12,14,15,22,-0.80
2016,12,14,15,23,-0.80
2016,12,14,15,24,-0.80
2016,12,14,15,25,-0.80
2016,12,14,15,26,-0.90
2016,12,14,15,27,-0.90
2016,12,14,15,28,-0.90
2016,12,14,15,29,-0.90
2016,12,14,15,30,-0.90
2016,12,14,15,31,-0.90
2016,12,14,15,32,-0.90
2016,12,14,15,33,-0.90
2016,12,14,15,34,-0.90
2016,12,14,15,35,-0.90
2016,12,14,15,36,-1.00
2016,12,14,15,37,-1.00
2016,12,14,15,38,-1.00
2016,12,14,15,39,-1.00
2016,12,14,15,40,-1.00
2016,12,14,15,41,-1.00
2016,12,14,15,42,-1.00
2016,12,14,15,43,-1.00
2016,12,14,15,44,-1.10
2016,12,14,15,45,-1.10
2016,12,14,15,46,-1.10
2016,12,14,15,47,-1.10
2016,12,14,15,48,-1.10
2016,12,14,15,49,-1.10
2016,12,14,15,50,-1.10
2016,12,14,15,51,-1.10
2016,12,14,15,52,-1.10
2016,12,14,15,53,-1.10
2016,12,14,15,54,-1.10
2016,12,14,15,55,-1.10
2016,12,14,15,56,-1.20
2016,12,14,15,57,-1.20
2016,12,14,15,58,-1.20
2016,12,14,15,59,-1.20
2016,12,14,16,00,-1.20
2016,12,14,16,01,-1.20
2016,12,14,16,02,-1.20
2016,12,14,16,03,-1.20
2016,12,14,16,04,-1.20
2016,12,14,16,05,-1.20
2016,12,14,16,06,-1.20
2016,12,14,16,07,-1.20
2016,12,14,16,08,-1.20
2016,12,14,16,09,-1.20
2016,12,14,16,10,-1.30
2016,12,14,16,11,-1.30
2016,12,14,16,12,-1.30
2016,12,14,16,13,-1.30
2016,12,14,16,14,-1.30
2016,12,14,16,15,-1.30
2016,12,14,16,16,-1.30
2016,12,14,16,17,-1.30
2016,12,14,16,18,-1.30
2016,12,14,16,19,-1.30
2016,12,14,16,20,-1.30
2016,12,14,16,21,-1.30
2016,12,14,16,22,-1.30
2016,12,14,16,23,-1.30
2016,12,14,16,24,-1.30
2016,12,14,16,25,-1.30
2016,12,14,16,26,-1.30
2016,12,14,16,27,-1.30
2016,12,14,16,28,-1.30
2016,12,14,16,29,-1.30
2016,12,14,16,30,-1.30
2016,12,14,16,31,-1.30
2016,12,14,16,32,-1.30
2016,12,14,16,33,-1.30
2016,12,14,16,34,-1.30
2016,12,14,16,35,-1.30
2016,12,14,16,36,-1.30
2016,12,14,16,37,-1.30
2016,12,14,16,38,-1.40
2016,12,14,16,39,-1.40
2016,12,14,16,40,-1.40
2016,12,14,16,41,-1.40
2016,12,14,16,42,-1.40
2016,12,14,16,43,-1.40
2016,12,14,16,44,-1.40
2016,12,14,16,45,-1.40
2016,12,14,16,46,-1.40
2016,12,14,16,47,-1.40
2016,12,14,16,48,-1.40
2016,12,14,16,49,-1.40
2016,12,14,16,50,-1.40
2016,12,14,16,51,-1.40
2016,12,14,16,52,-1.40
2016,12,14,16,53,-1.40
2016,12,14,16,54,-1.40
2016,12,14,16,55,-1.40
2016,12,14,16,56,-1.40
2016,12,14,16,57,-1.40
2016,12,14,16,58,-1.40
2016,12,14,16,59,-1.40
2016,12,14,17,00,-1.40
2016,12,14,17,01,-1.40
2016,12,14,17,02,-1.40
2016,12,14,17,03,-1.40
2016,12,14,17,04,-1.40
2016,12,14,17,05,-1.40
2016,12,14,17,06,-1.40
2016,12,14,17,07,-1.40
2016,12,14,17,08,-1.40
2016,12,14,17,09,-1.50
2016,12,14,17,10,-1.50
2016,12,14,17,11,-1.50
2016,12,14,17,12,-1.50
2016,12,14,17,13,-1.50
2016,12,14,17,14,-1.50
2016,12,14,17,15,-1.50
2016,12,14,17,16,-1.50
2016,12,14,17,17,-1.50
2016,12,14,17,18,-1.50
2016,12,14,17,19,-1.60